DW2079 Weather Reports


Display with metric or nautical units.
time (UTC)temp
F
wind
direction
speed
MPH
gust
MPH
rain 1hr
in
rain 24hr
in
rain mn
in
humidity
%
barometer
mb
20210919164516 85 13 0.0 3.0 0.00 0.02 0.00 74 1012.4
20210919163605 85 22 0.0 7.0 0.00 0.02 0.00 75 1012.5
20210919163301 85 259 0.0 4.0 0.00 0.02 0.00 76 1012.6
20210919162617 85 4 0.0 2.0 0.00 0.02 0.00 77 1012.7
20210919162057 84 329 0.0 6.0 0.00 0.02 0.00 77 1012.8
20210919161631 84 320 0.0 6.0 0.00 0.02 0.00 77 1012.9
20210919161059 84 358 0.0 4.0 0.00 0.02 0.00 78 1012.8
20210919160557 84 17 1.0 8.0 0.00 0.02 0.00 77 1012.9
20210919160329 84 35 2.0 8.0 0.00 0.02 0.00 78 1013.0
20210919155607 84 33 1.0 4.0 0.00 0.02 0.00 79 1012.9
20210919155100 83 358 1.0 4.0 0.00 0.02 0.00 80 1013.0
20210919154643 83 354 0.0 2.0 0.00 0.02 0.00 81 1013.1
20210919154051 83 359 0.0 1.0 0.00 0.02 0.00 82 1013.1
20210919153550 82 64 0.0 1.0 0.00 0.02 0.00 83 1013.1
20210919153205 82 281 0.0 0.0 0.00 0.02 0.00 83 1013.1
20210919152612 82 281 0.0 3.0 0.00 0.02 0.00 84 1013.0
20210919152048 82 161 0.0 3.0 0.00 0.02 0.00 83 1013.1
20210919151656 82 332 0.0 3.0 0.00 0.02 0.00 84 1013.1
20210919151047 81 24 0.0 2.0 0.00 0.02 0.00 84 1013.1
20210919150617 81 40 0.0 1.0 0.00 0.02 0.00 84 1013.1
20210919150116 81 360 0.0 2.0 0.00 0.02 0.00 84 1013.0
20210919145546 81 264 0.0 2.0 0.00 0.02 0.00 85 1013.0
20210919145043 81 259 0.0 0.0 0.00 0.02 0.00 84 1013.1
20210919144606 81 252 0.0 0.0 0.00 0.02 0.00 84 1013.0
20210919144042 81 10 0.0 0.0 0.00 0.02 0.00 84 1013.0
20210919143541 80 10 0.0 0.0 0.00 0.02 0.00 85 1013.0
20210919143125 80 10 0.0 0.0 0.00 0.02 0.00 85 1013.1
20210919142538 80 10 0.0 2.0 0.00 0.02 0.00 86 1012.9
20210919142040 79 348 0.0 2.0 0.00 0.02 0.00 87 1012.9
20210919141727 79 27 0.0 1.0 0.00 0.02 0.00 87 1012.8
20210919141035 79 26 0.0 1.0 0.00 0.02 0.00 88 1012.7
20210919140535 79 28 0.0 1.0 0.00 0.02 0.00 88 1012.7
20210919140050 78 28 0.0 0.0 0.00 0.02 0.00 88 1012.6
20210919135537 78 29 0.0 0.0 0.00 0.02 0.00 88 1012.7
20210919135031 78 29 0.0 0.0 0.00 0.02 0.00 90 1012.7
20210919134551 78 28 0.0 1.0 0.00 0.02 0.00 91 1012.6
20210919134030 77 28 0.0 1.0 0.00 0.02 0.00 90 1012.5
20210919133540 77 29 0.0 1.0 0.00 0.02 0.00 90 1012.5
20210919133127 76 28 0.0 1.0 0.00 0.02 0.00 91 1012.5
20210919132529 76 28 0.0 1.0 0.00 0.02 0.00 93 1012.5
20210919132029 76 28 0.0 0.0 0.00 0.02 0.00 94 1012.4
20210919131537 75 28 0.0 0.0 0.00 0.02 0.00 94 1012.5
20210919131028 75 28 0.0 0.0 0.00 0.02 0.00 94 1012.5
20210919130529 75 28 0.0 0.0 0.00 0.02 0.00 94 1012.4
20210919130040 74 28 0.0 0.0 0.00 0.02 0.00 94 1012.3
20210919125531 74 28 0.0 0.0 0.00 0.02 0.00 94 1012.4
20210919125028 74 28 0.0 0.0 0.00 0.02 0.00 94 1012.2
20210919124540 74 28 0.0 0.0 0.00 0.02 0.00 94 1012.2
20210919124028 74 28 0.0 0.0 0.00 0.02 0.00 93 1012.2
20210919123527 74 28 0.0 0.0 0.00 0.02 0.00 93 1012.2
20210919123053 74 28 0.0 0.0 0.00 0.02 0.00 93 1012.2
20210919122527 74 28 0.0 0.0 0.00 0.02 0.00 93 1012.1
20210919122028 74 28 0.0 0.0 0.00 0.02 0.00 93 1012.1
20210919121533 74 28 0.0 0.0 0.00 0.02 0.00 93 1012.0
20210919121027 74 28 0.0 0.0 0.00 0.02 0.00 93 1012.0
20210919120526 74 28 0.0 0.0 0.00 0.02 0.00 93 1011.9
20210919120105 74 28 0.0 0.0 0.00 0.02 0.00 92 1011.9
20210919115533 74 28 0.0 0.0 0.00 0.02 0.00 92 1011.9
20210919115025 74 28 0.0 0.0 0.00 0.02 0.00 92 1011.9
20210919114554 74 28 0.0 0.0 0.00 0.02 0.00 92 1011.9
20210919114027 74 28 0.0 0.0 0.00 0.02 0.00 92 1011.8
20210919113526 74 28 0.0 0.0 0.00 0.02 0.00 92 1011.8
20210919113026 74 28 0.0 0.0 0.00 0.02 0.00 92 1011.8
20210919112524 74 28 0.0 0.0 0.00 0.02 0.00 92 1011.8
20210919112024 74 28 0.0 0.0 0.00 0.02 0.00 92 1011.7
20210919111542 74 28 0.0 0.0 0.00 0.02 0.00 92 1011.8
20210919111024 74 28 0.0 0.0 0.00 0.02 0.00 92 1011.7
20210919110531 75 28 0.0 0.0 0.00 0.02 0.00 92 1011.6
20210919110058 74 28 0.0 0.0 0.00 0.02 0.00 92 1011.5
20210919105551 75 28 0.0 0.0 0.00 0.02 0.00 92 1011.4
20210919105025 74 28 0.0 0.0 0.00 0.02 0.00 92 1011.5
20210919104537 74 28 0.0 0.0 0.00 0.02 0.00 92 1011.5
20210919104023 75 29 0.0 0.0 0.00 0.02 0.00 92 1011.5
20210919103541 75 28 0.0 0.0 0.00 0.02 0.00 92 1011.4
20210919103026 75 28 0.0 0.0 0.00 0.02 0.00 92 1011.5
20210919102526 75 28 0.0 0.0 0.00 0.02 0.00 92 1011.6
20210919102021 75 28 0.0 0.0 0.00 0.02 0.00 92 1011.6
20210919101614 75 28 0.0 0.0 0.00 0.02 0.00 92 1011.6
20210919101028 75 28 0.0 0.0 0.00 0.02 0.00 92 1011.5
20210919100521 75 28 0.0 0.0 0.00 0.02 0.00 92 1011.4
20210919100021 75 28 0.0 0.0 0.00 0.02 0.00 92 1011.4
20210919095520 75 28 0.0 0.0 0.00 0.02 0.00 92 1011.4
20210919095029 75 28 0.0 0.0 0.00 0.02 0.00 91 1011.4
20210919094539 75 28 0.0 0.0 0.00 0.02 0.00 91 1011.4
20210919094019 75 28 0.0 0.0 0.00 0.02 0.00 91 1011.3
20210919093521 75 28 0.0 0.0 0.00 0.02 0.00 91 1011.3
20210919093025 75 28 0.0 0.0 0.00 0.02 0.00 91 1011.4
20210919092516 75 28 0.0 0.0 0.00 0.02 0.00 91 1011.6
20210919092024 75 28 0.0 0.0 0.00 0.02 0.00 91 1011.4
20210919091526 75 28 0.0 0.0 0.00 0.02 0.00 91 1011.5
20210919091017 75 28 0.0 0.0 0.00 0.02 0.00 91 1011.5
20210919090522 75 28 0.0 0.0 0.00 0.02 0.00 91 1011.4
20210919090017 75 28 0.0 1.0 0.00 0.02 0.00 90 1011.6
20210919085516 75 28 0.0 1.0 0.00 0.02 0.00 90 1011.7
20210919085014 76 28 0.0 0.0 0.00 0.02 0.00 90 1011.5
20210919084528 76 28 0.0 0.0 0.00 0.02 0.00 89 1011.7
20210919084017 76 28 0.0 0.0 0.00 0.02 0.00 90 1011.7
20210919083516 76 28 0.0 0.0 0.00 0.02 0.00 89 1011.7
20210919083015 76 28 0.0 0.0 0.00 0.02 0.00 89 1011.7
20210919082510 76 28 0.0 0.0 0.00 0.02 0.00 90 1011.8
20210919082009 76 28 0.0 0.0 0.00 0.02 0.00 90 1011.8
20210919081513 76 28 0.0 0.0 0.00 0.02 0.00 90 1011.8
20210919081008 76 28 0.0 0.0 0.00 0.02 0.00 90 1011.8
20210919080507 76 28 0.0 0.0 0.00 0.02 0.00 90 1011.9
20210919080031 76 28 0.0 0.0 0.00 0.02 0.00 89 1011.9
20210919075510 76 28 0.0 0.0 0.00 0.02 0.00 89 1011.9
20210919075035 76 28 0.0 0.0 0.00 0.02 0.00 89 1012.0
20210919074528 76 28 0.0 0.0 0.00 0.02 0.00 89 1012.0
20210919074006 76 28 0.0 1.0 0.00 0.02 0.00 89 1011.9
20210919073505 76 28 0.0 0.0 0.00 0.02 0.00 89 1012.0
20210919073025 76 28 0.0 0.0 0.00 0.02 0.00 89 1012.0
20210919072505 76 28 0.0 0.0 0.00 0.02 0.00 88 1012.0
20210919072010 76 28 0.0 0.0 0.00 0.02 0.00 88 1012.2
20210919071509 76 28 0.0 0.0 0.00 0.02 0.00 88 1012.1
20210919071005 76 28 0.0 0.0 0.00 0.02 0.00 88 1012.1
20210919070512 76 28 0.0 0.0 0.00 0.02 0.00 88 1011.9
20210919070003 76 28 0.0 0.0 0.00 0.02 0.00 88 1012.2
20210919065507 76 28 0.0 0.0 0.00 0.02 0.00 88 1012.2
20210919065002 77 28 0.0 0.0 0.00 0.02 0.00 88 1012.1
20210919064502 77 28 0.0 0.0 0.00 0.02 0.00 88 1012.2
20210919064001 77 28 0.0 0.0 0.00 0.02 0.00 88 1012.1
20210919063503 77 28 0.0 0.0 0.00 0.02 0.00 87 1012.2
20210919063001 77 28 0.0 0.0 0.00 0.02 0.00 87 1012.2
20210919062501 77 28 0.0 0.0 0.00 0.02 0.00 87 1012.1
20210919062100 77 28 0.0 0.0 0.00 0.02 0.00 87 1012.1
20210919061752 77 28 0.0 0.0 0.00 0.02 0.00 87 1012.1
20210919061101 77 28 0.0 0.0 0.00 0.02 0.00 87 1012.2
20210919060558 77 28 0.0 0.0 0.00 0.02 0.00 87 1012.2
20210919060211 77 28 0.0 0.0 0.00 0.02 0.00 87 1012.2
20210919055557 77 28 0.0 0.0 0.00 0.02 0.00 87 1012.4
20210919055057 77 28 0.0 0.0 0.00 0.02 0.00 87 1012.5
20210919054721 77 28 0.0 0.0 0.00 0.02 0.00 87 1012.5
20210919054059 77 28 0.0 0.0 0.00 0.02 0.00 87 1012.6
20210919053610 77 28 0.0 0.0 0.00 0.02 0.00 86 1012.6
20210919053108 77 28 0.0 0.0 0.00 0.02 0.00 86 1012.7
20210919052554 77 28 0.0 0.0 0.00 0.02 0.00 86 1012.6
20210919052053 77 28 0.0 1.0 0.00 0.02 0.00 86 1012.6
20210919051736 77 28 0.0 0.0 0.00 0.02 0.00 86 1012.6
20210919051053 77 28 0.0 0.0 0.00 0.02 0.00 86 1012.5
20210919050603 77 28 0.0 0.0 0.00 0.02 0.00 86 1012.6
20210919050120 78 28 0.0 0.0 0.00 0.02 0.02 86 1012.5
20210919045606 78 28 0.0 0.0 0.00 0.02 0.02 86 1012.5
20210919045051 78 28 0.0 0.0 0.00 0.02 0.02 85 1012.5
20210919044727 78 28 0.0 0.0 0.00 0.02 0.02 85 1012.6
20210919044103 78 28 0.0 0.0 0.00 0.02 0.02 85 1012.5
20210919043551 78 28 0.0 0.0 0.00 0.02 0.02 84 1012.6
20210919043140 78 28 0.0 0.0 0.00 0.02 0.02 84 1012.6
20210919042552 78 28 0.0 0.0 0.00 0.02 0.02 84 1012.5
20210919042050 79 28 0.0 0.0 0.00 0.02 0.02 83 1012.5
20210919041720 79 28 0.0 0.0 0.00 0.02 0.02 83 1012.5
20210919041052 79 28 0.0 0.0 0.00 0.02 0.02 82 1012.5
20210919040552 79 28 0.0 0.0 0.00 0.02 0.02 82 1012.5
20210919040150 79 28 0.0 0.0 0.00 0.02 0.02 82 1012.5
20210919035549 79 28 0.0 0.0 0.00 0.02 0.02 82 1012.5
20210919035055 79 28 0.0 0.0 0.00 0.02 0.02 81 1012.5
20210919034614 79 28 0.0 0.0 0.00 0.02 0.02 81 1012.4
20210919034049 79 28 0.0 0.0 0.00 0.02 0.02 81 1012.4
20210919033548 79 28 0.0 0.0 0.00 0.02 0.02 81 1012.5
20210919033207 80 28 0.0 0.0 0.00 0.02 0.02 81 1012.4
20210919032552 80 28 0.0 0.0 0.00 0.02 0.02 81 1012.5
20210919032048 80 28 0.0 0.0 0.00 0.02 0.02 81 1012.5
20210919031633 80 28 0.0 0.0 0.00 0.02 0.02 81 1012.4
20210919031107 80 28 0.0 0.0 0.00 0.02 0.02 82 1012.4
20210919030557 80 28 0.0 0.0 0.00 0.02 0.02 82 1012.5
20210919030135 80 28 0.0 0.0 0.00 0.02 0.02 81 1012.5
20210919025548 80 28 0.0 1.0 0.00 0.02 0.02 81 1012.5
20210919025054 80 28 0.0 2.0 0.00 0.02 0.02 81 1012.4
20210919024640 80 28 0.0 2.0 0.00 0.02 0.02 81 1012.4
20210919024046 81 28 0.0 2.0 0.00 0.02 0.02 81 1012.5
20210919023546 81 28 0.0 2.0 0.00 0.02 0.02 80 1012.4
20210919023145 81 28 0.0 0.0 0.00 0.02 0.02 80 1012.4
20210919022546 81 28 0.0 0.0 0.00 0.02 0.02 80 1012.3
20210919022046 81 28 0.0 0.0 0.00 0.02 0.02 80 1012.3
20210919021627 81 28 0.0 0.0 0.00 0.02 0.02 80 1012.2
20210919021045 82 28 0.0 1.0 0.00 0.02 0.02 80 1012.3
20210919020545 82 28 0.0 1.0 0.00 0.02 0.02 80 1012.1
20210919020127 82 28 0.0 1.0 0.00 0.02 0.02 79 1012.1
20210919015545 82 28 0.0 1.0 0.00 0.02 0.02 79 1012.0
20210919015044 82 28 0.0 1.0 0.00 0.02 0.02 79 1011.9
20210919014659 82 28 0.0 1.0 0.00 0.02 0.02 78 1011.8
20210919014043 82 28 0.0 0.0 0.00 0.02 0.02 78 1011.8
20210919013548 83 28 0.0 0.0 0.00 0.02 0.02 78 1011.7
20210919013101 83 28 0.0 0.0 0.00 0.02 0.02 78 1011.6
20210919012543 83 28 0.0 0.0 0.00 0.02 0.02 77 1011.5
20210919012045 83 28 0.0 0.0 0.00 0.02 0.02 76 1011.5
20210919011554 83 28 0.0 0.0 0.00 0.02 0.02 76 1011.3
20210919011107 83 27 0.0 0.0 0.00 0.02 0.02 76 1011.2
20210919010603 83 35 0.0 0.0 0.00 0.02 0.02 76 1011.1
20210919010111 83 35 0.0 0.0 0.00 0.02 0.02 75 1011.2
20210919005609 83 35 0.0 1.0 0.00 0.02 0.02 75 1011.1
20210919005043 84 35 0.0 2.0 0.00 0.02 0.02 74 1011.2
20210919004738 84 35 0.0 2.0 0.00 0.02 0.02 73 1011.1
20210919004042 84 35 0.0 2.0 0.00 0.02 0.02 73 1011.2
20210919003542 84 35 0.0 0.0 0.00 0.02 0.02 73 1011.1
20210919003259 85 35 0.0 0.0 0.00 0.02 0.02 72 1011.1
20210919002542 85 35 0.0 2.0 0.00 0.02 0.02 72 1011.2
20210919002042 85 35 0.0 3.0 0.00 0.02 0.02 72 1011.0
20210919001556 85 29 1.0 3.0 0.00 0.02 0.02 72 1011.2
20210919001046 85 12 0.0 2.0 0.00 0.02 0.02 71 1011.2
20210919000541 85 9 0.0 0.0 0.00 0.02 0.02 72 1011.1
20210919000122 85 9 0.0 0.0 0.00 0.02 0.02 71 1011.3
20210918235545 85 9 0.0 0.0 0.00 0.02 0.02 71 1011.2
20210918235041 86 13 0.0 0.0 0.00 0.02 0.02 71 1011.2
20210918234615 86 13 0.0 0.0 0.00 0.02 0.02 70 1011.3
20210918234040 86 13 0.0 1.0 0.00 0.02 0.02 70 1011.3
20210918233540 86 13 0.0 2.0 0.00 0.02 0.02 70 1011.2
20210918233049 86 13 0.0 2.0 0.00 0.02 0.02 70 1011.2
20210918232558 86 13 0.0 4.0 0.00 0.02 0.02 70 1011.1
20210918232053 86 27 1.0 4.0 0.00 0.02 0.02 69 1011.1
20210918231546 86 12 1.0 4.0 0.00 0.02 0.02 69 1011.2
20210918231046 86 32 1.0 3.0 0.00 0.02 0.02 69 1011.2
20210918230602 86 46 1.0 2.0 0.00 0.02 0.02 69 1011.2
20210918230053 86 42 1.0 2.0 0.00 0.02 0.02 69 1011.0
20210918225542 87 42 0.0 1.0 0.00 0.02 0.02 69 1010.9
20210918225038 87 19 0.0 1.0 0.00 0.02 0.02 68 1010.9
20210918224555 87 12 0.0 1.0 0.00 0.02 0.02 67 1011.0
20210918224050 87 4 0.0 2.0 0.00 0.02 0.02 67 1011.0
20210918223548 86 13 1.0 3.0 0.00 0.02 0.02 68 1011.0
20210918223123 86 18 1.0 4.0 0.00 0.02 0.02 69 1011.0
20210918222537 87 344 2.0 4.0 0.00 0.02 0.02 69 1010.9
20210918222042 87 40 0.0 3.0 0.00 0.02 0.02 69 1010.8
20210918221609 88 5 0.0 2.0 0.00 0.02 0.02 69 1010.7
20210918221104 88 14 0.0 4.0 0.00 0.02 0.02 68 1010.7
20210918220537 88 42 0.0 4.0 0.00 0.02 0.02 67 1010.6
20210918220059 89 347 0.0 3.0 0.00 0.02 0.02 65 1010.6
20210918215536 90 15 1.0 3.0 0.00 0.02 0.02 62 1010.6
20210918215110 90 24 0.0 3.0 0.00 0.02 0.02 62 1010.6
20210918214559 90 18 0.0 4.0 0.00 0.02 0.02 63 1010.6
20210918214040 90 2 1.0 3.0 0.00 0.02 0.02 63 1010.6
20210918213540 90 56 0.0 3.0 0.00 0.02 0.02 63 1010.7
20210918213144 90 23 1.0 3.0 0.00 0.02 0.02 63 1010.8
20210918212535 90 6 1.0 3.0 0.00 0.02 0.02 64 1010.9
20210918212034 89 35 0.0 2.0 0.00 0.02 0.02 66 1011.0
20210918211542 89 23 0.0 2.0 0.00 0.02 0.02 66 1011.0
20210918211106 89 24 0.0 2.0 0.00 0.02 0.02 67 1011.2
20210918210537 89 24 0.0 2.0 0.00 0.02 0.02 68 1011.3
20210918210104 88 276 0.0 2.0 0.00 0.02 0.02 67 1011.3
20210918205530 88 8 0.0 2.0 0.00 0.02 0.02 69 1011.4
20210918205037 87 36 0.0 1.0 0.00 0.02 0.02 69 1011.5
20210918204618 86 30 0.0 0.0 0.00 0.02 0.02 71 1011.4
20210918204029 86 30 0.0 1.0 0.00 0.02 0.02 72 1011.5
20210918203534 85 8 0.0 1.0 0.00 0.02 0.02 75 1011.6
20210918203112 83 19 0.0 1.0 0.00 0.02 0.02 76 1011.9
20210918202526 82 19 0.0 1.0 0.00 0.02 0.02 79 1011.9
20210918202026 81 67 0.0 1.0 0.01 0.02 0.02 79 1012.0
20210918201537 81 67 0.0 1.0 0.02 0.02 0.02 79 1012.3
20210918201035 80 67 0.0 1.0 0.02 0.02 0.02 78 1012.4
20210918200533 80 67 0.0 1.0 0.02 0.02 0.02 82 1012.5
20210918200053 79 67 0.0 2.0 0.02 0.02 0.02 80 1012.5
20210918195524 79 67 0.0 2.0 0.02 0.02 0.02 82 1012.6
20210918195026 78 121 0.0 2.0 0.02 0.02 0.02 85 1012.7
20210918194602 77 14 0.0 1.0 0.02 0.02 0.02 85 1012.8
20210918194030 77 343 0.0 1.0 0.02 0.02 0.02 84 1012.7
20210918193520 76 352 0.0 1.0 0.02 0.02 0.02 83 1012.9
20210918193041 76 4 0.0 4.0 0.02 0.02 0.02 82 1013.0
20210918192520 77 48 0.0 6.0 0.02 0.02 0.02 81 1013.2
20210918192026 79 316 0.0 10.0 0.01 0.01 0.01 80 1013.1
20210918191554 83 322 3.0 10.0 0.00 0.00 0.00 72 1013.2
20210918191034 88 346 2.0 6.0 0.00 0.00 0.00 67 1013.3
20210918190537 90 8 2.0 5.0 0.00 0.00 0.00 61 1013.1
20210918190059 90 19 0.0 2.0 0.00 0.00 0.00 60 1013.0
20210918185521 91 16 0.0 2.0 0.00 0.00 0.00 60 1013.0
20210918185017 91 16 0.0 2.0 0.00 0.00 0.00 59 1013.1
20210918184526 91 52 0.0 2.0 0.00 0.00 0.00 61 1013.0
20210918184015 91 3 0.0 2.0 0.00 0.00 0.00 61 1013.1
20210918183514 90 63 0.0 2.0 0.00 0.00 0.00 63 1013.1
20210918183056 89 268 0.0 3.0 0.00 0.00 0.00 63 1013.2
20210918182533 90 6 0.0 4.0 0.00 0.00 0.00 62 1013.2
20210918182018 90 354 1.0 4.0 0.00 0.00 0.00 62 1013.3
20210918181535 90 4 0.0 2.0 0.00 0.00 0.00 61 1013.4
20210918181014 90 6 0.0 2.0 0.00 0.00 0.00 63 1013.4
20210918180518 90 8 0.0 2.0 0.00 0.00 0.00 60 1013.5
20210918180021 90 12 0.0 3.0 0.00 0.00 0.00 62 1013.6
20210918175511 90 31 0.0 3.0 0.00 0.00 0.00 63 1013.8
20210918175009 89 2 1.0 3.0 0.00 0.00 0.00 66 1013.9
20210918174522 89 25 0.0 3.0 0.00 0.00 0.00 67 1014.0
20210918174007 88 41 0.0 3.0 0.00 0.00 0.00 68 1013.9
20210918173506 88 67 0.0 2.0 0.00 0.00 0.00 69 1014.0
20210918173007 87 21 0.0 3.0 0.00 0.00 0.00 69 1014.1
20210918172506 88 358 0.0 3.0 0.00 0.00 0.00 69 1014.1
20210918172006 88 17 0.0 3.0 0.00 0.00 0.00 70 1014.1
20210918171509 87 25 1.0 2.0 0.00 0.00 0.00 69 1014.3
20210918171008 87 24 0.0 2.0 0.00 0.00 0.00 72 1014.4
20210918170514 87 8 0.0 2.0 0.00 0.00 0.00 71 1014.5
20210918170015 87 69 0.0 1.0 0.00 0.00 0.00 71 1014.6
20210918165504 86 38 0.0 1.0 0.00 0.00 0.00 72 1014.6
20210918165002 86 8 0.0 1.0 0.00 0.00 0.00 72 1014.6